Boston, MA

10:03 PM EST on February 07, 2016 (GMT -0500)
Logan International

Weather History for KBOS - June, 2012

Change the Weather History Date:

Friday, June 1, 2012

  Actual Average Record
Temperature  
Mean Temperature 62 °F 63 °F  
Max Temperature 65 °F 71 °F 96 °F (1879)
Min Temperature 58 °F 55 °F 41 °F (1945)
Degree Days  
Heating Degree Days 3 4  
Month to date heating degree days 3 4  
Since 1 June heating degree days 3 4  
Since 1 July heating degree days 4344 5630  
Cooling Degree Days 0 2  
Month to date cooling degree days 0 2  
Year to date cooling degree days 59 32  
Since 1 June cooling degree days 0 2  
Growing Degree Days 10 (Base 50)    
Moisture  
Dew Point 49 °F    
Average Humidity 66    
Maximum Humidity 84    
Minimum Humidity 48    
Precipitation  
Precipitation 0.00 in 0.15 in 1.94 in (1992)
Month to date precipitation 0.00 0.15  
Year to date precipitation 11.40 18.31  
Sea Level Pressure  
Sea Level Pressure 30.04 in    
Wind  
Wind Speed 12 mph (East)    
Max Wind Speed 17 mph    
Max Gust Speed 22 mph    
Visibility 10 miles    
Events      
T = Trace of Precipitation, MM = Missing Value Source: NWS Daily Summary

Daily Weather History Graph

Daily Weather History Graph

Search for Another Location

Airport or City:

Trip Planner

Search our weather history database for the weather conditions in past years. The results will help you decide how hot, cold, wet, or windy it might be!

Date:

Astronomy

Jun. 01, 2012 Rise Set
Actual Time 5:09 AM EDT 8:14 PM EDT
Civil Twilight 4:35 AM EDT 8:48 PM EDT
Nautical Twilight 3:52 AM EDT 9:32 PM EDT
Astronomical Twilight 3:00 AM EDT 10:24 PM EDT
Moon 5:10 PM EDT (6/1) 2:46 AM EDT (6/1)
Length of Visible Light 16h 13m
Length of Day
15h 05m
Waxing Gibbous, 89% of the Moon is Illuminated
Jun 1
Waxing Gibbous
Jun 4
Full
Jun 11
Last Quarter
Jun 19
New
Jun 26
First Quarter

Hourly Weather History & Observations

Time (EDT) Temp. Dew Point Humidity Pressure Visibility Wind Dir Wind Speed Gust Speed Precip Events Conditions
12:54 AM 64.0 °F 55.9 °F 75% 29.94 in 10.0 mi North 9.2 mph - N/A   Clear
1:54 AM 62.1 °F 57.0 °F 84% 29.95 in 10.0 mi North 8.1 mph - N/A   Clear
2:54 AM 62.1 °F 54.0 °F 75% 29.97 in 10.0 mi North 9.2 mph - N/A   Mostly Cloudy
3:54 AM 61.0 °F 52.0 °F 72% 29.99 in 10.0 mi North 9.2 mph - N/A   Mostly Cloudy
4:54 AM 60.1 °F 50.0 °F 69% 30.01 in 10.0 mi NNE 8.1 mph - N/A   Mostly Cloudy
5:54 AM 60.1 °F 50.0 °F 69% 30.03 in 10.0 mi NE 10.4 mph - N/A   Partly Cloudy
6:54 AM 62.1 °F 46.0 °F 56% 30.05 in 10.0 mi NE 11.5 mph - N/A   Partly Cloudy
7:54 AM 63.0 °F 44.1 °F 50% 30.06 in 10.0 mi NE 15.0 mph - N/A   Scattered Clouds
8:54 AM 64.0 °F 45.0 °F 50% 30.08 in 10.0 mi ENE 13.8 mph - N/A   Scattered Clouds
9:54 AM 63.0 °F 50.0 °F 63% 30.09 in 10.0 mi East 15.0 mph - N/A   Scattered Clouds
10:54 AM 64.0 °F 50.0 °F 60% 30.09 in 10.0 mi East 13.8 mph - N/A   Mostly Cloudy
11:54 AM 64.0 °F 46.9 °F 54% 30.09 in 10.0 mi East 13.8 mph - N/A   Mostly Cloudy
12:54 PM 64.0 °F 46.0 °F 52% 30.09 in 10.0 mi East 12.7 mph - N/A   Scattered Clouds
1:54 PM 64.0 °F 46.9 °F 54% 30.09 in 10.0 mi ESE 10.4 mph - N/A   Mostly Cloudy
2:54 PM 63.0 °F 48.9 °F 60% 30.08 in 10.0 mi East 12.7 mph - N/A   Mostly Cloudy
3:54 PM 61.0 °F 48.0 °F 62% 30.07 in 10.0 mi ESE 12.7 mph - N/A   Mostly Cloudy
4:54 PM 61.0 °F 46.9 °F 60% 30.06 in 10.0 mi East 12.7 mph - N/A   Overcast
5:54 PM 61.0 °F 48.0 °F 62% 30.04 in 10.0 mi ESE 12.7 mph - N/A   Overcast
6:54 PM 59.0 °F 48.0 °F 67% 30.04 in 10.0 mi SE 12.7 mph - N/A   Overcast
7:54 PM 59.0 °F 46.0 °F 62% 30.04 in 10.0 mi SE 12.7 mph - N/A   Overcast
8:54 PM 59.0 °F 46.0 °F 62% 30.05 in 10.0 mi SE 10.4 mph - N/A   Overcast
9:54 PM 59.0 °F 46.0 °F 62% 30.06 in 10.0 mi SE 8.1 mph - N/A   Overcast
10:54 PM 57.9 °F 46.9 °F 67% 30.04 in 10.0 mi SE 10.4 mph - N/A   Overcast
11:54 PM 57.9 °F 46.9 °F 67% 30.03 in 10.0 mi ESE 10.4 mph - N/A   Overcast